Year,Month,Day,Hour,Minute,Value (Times are PST for temperature in C)
2008,06,30,00,00,24.00
2008,06,30,00,01,23.90
2008,06,30,00,02,23.70
2008,06,30,00,03,23.50
2008,06,30,00,04,23.40
2008,06,30,00,05,23.20
2008,06,30,00,06,23.20
2008,06,30,00,07,23.20
2008,06,30,00,08,23.20
2008,06,30,00,09,23.20
2008,06,30,00,10,23.20
2008,06,30,00,11,23.20
2008,06,30,00,12,23.20
2008,06,30,00,13,23.20
2008,06,30,00,14,23.20
2008,06,30,00,15,23.20
2008,06,30,00,16,23.10
2008,06,30,00,17,22.90
2008,06,30,00,18,22.80
2008,06,30,00,19,22.70
2008,06,30,00,20,22.50
2008,06,30,00,21,22.40
2008,06,30,00,22,22.30
2008,06,30,00,23,22.10
2008,06,30,00,24,22.00
2008,06,30,00,25,21.90
2008,06,30,00,26,21.90
2008,06,30,00,27,21.80
2008,06,30,00,28,21.80
2008,06,30,00,29,21.80
2008,06,30,00,30,21.80
2008,06,30,00,31,21.70
2008,06,30,00,32,21.60
2008,06,30,00,33,21.60
2008,06,30,00,34,21.50
2008,06,30,00,35,21.40
2008,06,30,00,36,21.30
2008,06,30,00,37,21.20
2008,06,30,00,38,21.20
2008,06,30,00,39,21.10
2008,06,30,00,40,21.10
2008,06,30,00,41,21.00
2008,06,30,00,42,20.90
2008,06,30,00,43,20.90
2008,06,30,00,44,20.90
2008,06,30,00,45,20.90
2008,06,30,00,46,21.00
2008,06,30,00,47,21.00
2008,06,30,00,48,20.90
2008,06,30,00,49,20.80
2008,06,30,00,50,20.80
2008,06,30,00,51,20.70
2008,06,30,00,52,20.70
2008,06,30,00,53,20.70
2008,06,30,00,54,20.70
2008,06,30,00,55,20.70
2008,06,30,00,56,20.70
2008,06,30,00,57,20.70
2008,06,30,00,58,20.70
2008,06,30,00,59,20.70
2008,06,30,01,00,20.70
2008,06,30,01,01,20.70
2008,06,30,01,02,20.60
2008,06,30,01,03,20.60
2008,06,30,01,04,20.50
2008,06,30,01,05,20.40
2008,06,30,01,06,20.40
2008,06,30,01,07,20.30
2008,06,30,01,08,20.30
2008,06,30,01,09,20.20
2008,06,30,01,10,20.20
2008,06,30,01,11,20.20
2008,06,30,01,12,20.10
2008,06,30,01,13,20.10
2008,06,30,01,14,20.00
2008,06,30,01,15,20.00
2008,06,30,01,16,19.90
2008,06,30,01,17,19.90
2008,06,30,01,18,19.90
2008,06,30,01,19,19.80
2008,06,30,01,20,19.80
2008,06,30,01,21,19.80
2008,06,30,01,22,19.80
2008,06,30,01,23,19.80
2008,06,30,01,24,19.80
2008,06,30,01,25,19.80
2008,06,30,01,26,19.80
2008,06,30,01,27,19.80
2008,06,30,01,28,19.70
2008,06,30,01,29,19.70
2008,06,30,01,30,19.60
2008,06,30,01,31,19.60
2008,06,30,01,32,19.50
2008,06,30,01,33,19.50
2008,06,30,01,34,19.40
2008,06,30,01,35,19.40
2008,06,30,01,36,19.30
2008,06,30,01,37,19.30
2008,06,30,01,38,19.20
2008,06,30,01,39,19.20
2008,06,30,01,40,19.20
2008,06,30,01,41,19.20
2008,06,30,01,42,19.20
2008,06,30,01,43,19.20
2008,06,30,01,44,19.20
2008,06,30,01,45,19.10
2008,06,30,01,46,19.20
2008,06,30,01,47,19.20
2008,06,30,01,48,19.10
2008,06,30,01,49,19.10
2008,06,30,01,50,19.00
2008,06,30,01,51,19.00
2008,06,30,01,52,19.00
2008,06,30,01,53,19.00
2008,06,30,01,54,19.00
2008,06,30,01,55,19.00
2008,06,30,01,56,19.10
2008,06,30,01,57,19.10
2008,06,30,01,58,19.10
2008,06,30,01,59,19.10
2008,06,30,02,00,19.00
2008,06,30,02,01,19.00
2008,06,30,02,02,18.90
2008,06,30,02,03,18.90
2008,06,30,02,04,18.90
2008,06,30,02,05,18.90
2008,06,30,02,06,18.90
2008,06,30,02,07,18.90
2008,06,30,02,08,18.90
2008,06,30,02,09,18.90
2008,06,30,02,10,18.90
2008,06,30,02,11,18.90
2008,06,30,02,12,18.90
2008,06,30,02,13,18.90
2008,06,30,02,14,18.90
2008,06,30,02,15,18.90
2008,06,30,02,16,18.90
2008,06,30,02,17,18.90
2008,06,30,02,18,18.90
2008,06,30,02,19,18.80
2008,06,30,02,20,18.80
2008,06,30,02,21,18.70
2008,06,30,02,22,18.60
2008,06,30,02,23,18.50
2008,06,30,02,24,18.50
2008,06,30,02,25,18.40
2008,06,30,02,26,18.40
2008,06,30,02,27,18.40
2008,06,30,02,28,18.40
2008,06,30,02,29,18.40
2008,06,30,02,30,18.40
2008,06,30,02,31,18.40
2008,06,30,02,32,18.40
2008,06,30,02,33,18.40
2008,06,30,02,34,18.40
2008,06,30,02,35,18.40
2008,06,30,02,36,18.40
2008,06,30,02,37,18.40
2008,06,30,02,38,18.40
2008,06,30,02,39,18.40
2008,06,30,02,40,18.50
2008,06,30,02,41,18.50
2008,06,30,02,42,18.60
2008,06,30,02,43,18.60
2008,06,30,02,44,18.60
2008,06,30,02,45,18.60
2008,06,30,02,46,18.50
2008,06,30,02,47,18.50
2008,06,30,02,48,18.40
2008,06,30,02,49,18.50
2008,06,30,02,50,18.60
2008,06,30,02,51,18.80
2008,06,30,02,52,19.10
2008,06,30,02,53,19.40
2008,06,30,02,54,19.80
2008,06,30,02,55,20.10
2008,06,30,02,56,20.40
2008,06,30,02,57,20.60
2008,06,30,02,58,20.80
2008,06,30,02,59,20.90
2008,06,30,03,00,21.00
2008,06,30,03,01,21.10
2008,06,30,03,02,21.20
2008,06,30,03,03,21.20
2008,06,30,03,04,21.30
2008,06,30,03,05,21.40
2008,06,30,03,06,21.40
2008,06,30,03,07,21.50
2008,06,30,03,08,21.60
2008,06,30,03,09,21.60
2008,06,30,03,10,21.60
2008,06,30,03,11,21.70
2008,06,30,03,12,21.70
2008,06,30,03,13,21.80
2008,06,30,03,14,21.80
2008,06,30,03,15,21.80
2008,06,30,03,16,21.80
2008,06,30,03,17,21.80
2008,06,30,03,18,21.80
2008,06,30,03,19,21.80
2008,06,30,03,20,21.80
2008,06,30,03,21,21.80
2008,06,30,03,22,21.80
2008,06,30,03,23,21.80
2008,06,30,03,24,21.80
2008,06,30,03,25,21.80
2008,06,30,03,26,21.80
2008,06,30,03,27,21.80
2008,06,30,03,28,21.70
2008,06,30,03,29,21.70
2008,06,30,03,30,21.70
2008,06,30,03,31,21.60
2008,06,30,03,32,21.60
2008,06,30,03,33,21.60
2008,06,30,03,34,21.50
2008,06,30,03,35,21.50
2008,06,30,03,36,21.50
2008,06,30,03,37,21.40
2008,06,30,03,38,21.40
2008,06,30,03,39,21.40
2008,06,30,03,40,21.40
2008,06,30,03,41,21.40
2008,06,30,03,42,21.40
2008,06,30,03,43,21.40
2008,06,30,03,44,21.40
2008,06,30,03,45,21.40
2008,06,30,03,46,21.40
2008,06,30,03,47,21.40
2008,06,30,03,48,21.40
2008,06,30,03,49,21.40
2008,06,30,03,50,21.30
2008,06,30,03,51,21.30
2008,06,30,03,52,21.20
2008,06,30,03,53,21.20
2008,06,30,03,54,21.20
2008,06,30,03,55,21.10
2008,06,30,03,56,21.10
2008,06,30,03,57,21.10
2008,06,30,03,58,21.00
2008,06,30,03,59,21.00
2008,06,30,04,00,21.00
2008,06,30,04,01,21.00
2008,06,30,04,02,20.90
2008,06,30,04,03,20.90
2008,06,30,04,04,20.90
2008,06,30,04,05,20.90
2008,06,30,04,06,20.80
2008,06,30,04,07,20.80
2008,06,30,04,08,20.80
2008,06,30,04,09,20.80
2008,06,30,04,10,20.80
2008,06,30,04,11,20.80
2008,06,30,04,12,20.80
2008,06,30,04,13,20.80
2008,06,30,04,14,20.80
2008,06,30,04,15,20.80
2008,06,30,04,16,20.70
2008,06,30,04,17,20.70
2008,06,30,04,18,20.60
2008,06,30,04,19,20.50
2008,06,30,04,20,20.40
2008,06,30,04,21,20.30
2008,06,30,04,22,20.20
2008,06,30,04,23,20.20
2008,06,30,04,24,20.20
2008,06,30,04,25,20.20
2008,06,30,04,26,20.20
2008,06,30,04,27,20.30
2008,06,30,04,28,20.30
2008,06,30,04,29,20.30
2008,06,30,04,30,20.30
2008,06,30,04,31,20.30
2008,06,30,04,32,20.30
2008,06,30,04,33,20.20
2008,06,30,04,34,20.10
2008,06,30,04,35,20.10
2008,06,30,04,36,20.00
2008,06,30,04,37,20.00
2008,06,30,04,38,20.00
2008,06,30,04,39,19.90
2008,06,30,04,40,19.90
2008,06,30,04,41,19.90
2008,06,30,04,42,19.80
2008,06,30,04,43,19.80
2008,06,30,04,44,19.70
2008,06,30,04,45,19.70
2008,06,30,04,46,19.70
2008,06,30,04,47,19.70
2008,06,30,04,48,19.70
2008,06,30,04,49,19.70
2008,06,30,04,50,19.70
2008,06,30,04,51,19.70
2008,06,30,04,52,19.70
2008,06,30,04,53,19.50
2008,06,30,04,54,19.40
2008,06,30,04,55,19.40
2008,06,30,04,56,19.30
2008,06,30,04,57,19.40
2008,06,30,04,58,19.40
2008,06,30,04,59,19.50
2008,06,30,05,00,19.50
2008,06,30,05,01,19.50
2008,06,30,05,02,19.50
2008,06,30,05,03,19.40
2008,06,30,05,04,19.40
2008,06,30,05,05,19.30
2008,06,30,05,06,19.30
2008,06,30,05,07,19.30
2008,06,30,05,08,19.20
2008,06,30,05,09,19.20
2008,06,30,05,10,19.10
2008,06,30,05,11,18.90
2008,06,30,05,12,18.90
2008,06,30,05,13,18.80
2008,06,30,05,14,18.80
2008,06,30,05,15,18.80
2008,06,30,05,16,18.80
2008,06,30,05,17,18.90
2008,06,30,05,18,18.90
2008,06,30,05,19,18.90
2008,06,30,05,20,18.80
2008,06,30,05,21,18.80
2008,06,30,05,22,18.70
2008,06,30,05,23,18.70
2008,06,30,05,24,18.60
2008,06,30,05,25,18.60
2008,06,30,05,26,18.70
2008,06,30,05,27,18.70
2008,06,30,05,28,18.80
2008,06,30,05,29,18.80
2008,06,30,05,30,18.80
2008,06,30,05,31,18.80
2008,06,30,05,32,18.80
2008,06,30,05,33,18.90
2008,06,30,05,34,18.90
2008,06,30,05,35,18.80
2008,06,30,05,36,18.70
2008,06,30,05,37,18.60
2008,06,30,05,38,18.60
2008,06,30,05,39,18.50
2008,06,30,05,40,18.40
2008,06,30,05,41,18.40
2008,06,30,05,42,18.40
2008,06,30,05,43,18.50
2008,06,30,05,44,18.50
2008,06,30,05,45,18.60
2008,06,30,05,46,18.60
2008,06,30,05,47,18.70
2008,06,30,05,48,18.70
2008,06,30,05,49,18.70
2008,06,30,05,50,18.60
2008,06,30,05,51,18.60
2008,06,30,05,52,18.60
2008,06,30,05,53,18.60
2008,06,30,05,54,18.60
2008,06,30,05,55,18.60
2008,06,30,05,56,18.60
2008,06,30,05,57,18.60
2008,06,30,05,58,18.60
2008,06,30,05,59,18.60
2008,06,30,06,00,18.50
2008,06,30,06,01,18.50
2008,06,30,06,02,18.40
2008,06,30,06,03,18.40
2008,06,30,06,04,18.40
2008,06,30,06,05,18.50
2008,06,30,06,06,18.60
2008,06,30,06,07,18.60
2008,06,30,06,08,18.70
2008,06,30,06,09,18.80
2008,06,30,06,10,18.80
2008,06,30,06,11,18.80
2008,06,30,06,12,18.80
2008,06,30,06,13,18.80
2008,06,30,06,14,18.90
2008,06,30,06,15,18.90
2008,06,30,06,16,19.00
2008,06,30,06,17,19.00
2008,06,30,06,18,19.10
2008,06,30,06,19,19.10
2008,06,30,06,20,19.10
2008,06,30,06,21,19.20
2008,06,30,06,22,19.20
2008,06,30,06,23,19.10
2008,06,30,06,24,19.20
2008,06,30,06,25,19.20
2008,06,30,06,26,19.20
2008,06,30,06,27,19.20
2008,06,30,06,28,19.30
2008,06,30,06,29,19.30
2008,06,30,06,30,19.40
2008,06,30,06,31,19.40
2008,06,30,06,32,19.50
2008,06,30,06,33,19.50
2008,06,30,06,34,19.60
2008,06,30,06,35,19.60
2008,06,30,06,36,19.70
2008,06,30,06,37,19.70
2008,06,30,06,38,19.80
2008,06,30,06,39,19.80
2008,06,30,06,40,19.90
2008,06,30,06,41,20.00
2008,06,30,06,42,20.10
2008,06,30,06,43,20.10
2008,06,30,06,44,20.10
2008,06,30,06,45,20.20
2008,06,30,06,46,20.20
2008,06,30,06,47,20.20
2008,06,30,06,48,20.20
2008,06,30,06,49,20.10
2008,06,30,06,50,20.10
2008,06,30,06,51,20.10
2008,06,30,06,52,20.10
2008,06,30,06,53,20.10
2008,06,30,06,54,20.10
2008,06,30,06,55,20.10
2008,06,30,06,56,20.20
2008,06,30,06,57,20.20
2008,06,30,06,58,20.20
2008,06,30,06,59,20.30
2008,06,30,07,00,20.30
2008,06,30,07,01,20.30
2008,06,30,07,02,20.40
2008,06,30,07,03,20.40
2008,06,30,07,04,20.40
2008,06,30,07,05,20.40
2008,06,30,07,06,20.50
2008,06,30,07,07,20.50
2008,06,30,07,08,20.50
2008,06,30,07,09,20.50
2008,06,30,07,10,20.50
2008,06,30,07,11,20.50
2008,06,30,07,12,20.60
2008,06,30,07,13,20.60
2008,06,30,07,14,20.60
2008,06,30,07,15,20.60
2008,06,30,07,16,20.60
2008,06,30,07,17,20.60
2008,06,30,07,18,20.50
2008,06,30,07,19,20.50
2008,06,30,07,20,20.50
2008,06,30,07,21,20.50
2008,06,30,07,22,20.50
2008,06,30,07,23,20.40
2008,06,30,07,24,20.40
2008,06,30,07,25,20.40
2008,06,30,07,26,20.40
2008,06,30,07,27,20.40
2008,06,30,07,28,20.40
2008,06,30,07,29,20.40
2008,06,30,07,30,20.40
2008,06,30,07,31,20.40
2008,06,30,07,32,20.40
2008,06,30,07,33,20.40
2008,06,30,07,34,20.40
2008,06,30,07,35,20.40
2008,06,30,07,36,20.40
2008,06,30,07,37,20.40
2008,06,30,07,38,20.40
2008,06,30,07,39,20.40
2008,06,30,07,40,20.50
2008,06,30,07,41,20.50
2008,06,30,07,42,20.50
2008,06,30,07,43,20.60
2008,06,30,07,44,20.60
2008,06,30,07,45,20.60
2008,06,30,07,46,20.70
2008,06,30,07,47,20.70
2008,06,30,07,48,20.70
2008,06,30,07,49,20.70
2008,06,30,07,50,20.70
2008,06,30,07,51,20.60
2008,06,30,07,52,20.60
2008,06,30,07,53,20.60
2008,06,30,07,54,20.50
2008,06,30,07,55,20.40
2008,06,30,07,56,20.40
2008,06,30,07,57,20.40
2008,06,30,07,58,20.40
2008,06,30,07,59,20.40
2008,06,30,08,00,20.40
2008,06,30,08,01,20.40
2008,06,30,08,02,20.40
2008,06,30,08,03,20.40
2008,06,30,08,04,20.40
2008,06,30,08,05,20.40
2008,06,30,08,06,20.40
2008,06,30,08,07,20.50
2008,06,30,08,08,20.50
2008,06,30,08,09,20.50
2008,06,30,08,10,20.60
2008,06,30,08,11,20.60
2008,06,30,08,12,20.70
2008,06,30,08,13,20.70
2008,06,30,08,14,20.80
2008,06,30,08,15,20.90
2008,06,30,08,16,21.00
2008,06,30,08,17,21.10
2008,06,30,08,18,21.20
2008,06,30,08,19,21.30
2008,06,30,08,20,21.30
2008,06,30,08,21,21.40
2008,06,30,08,22,21.50
2008,06,30,08,23,21.60
2008,06,30,08,24,21.60
2008,06,30,08,25,21.70
2008,06,30,08,26,21.80
2008,06,30,08,27,21.90
2008,06,30,08,28,22.00
2008,06,30,08,29,22.00
2008,06,30,08,30,22.10
2008,06,30,08,31,22.10
2008,06,30,08,32,22.10
2008,06,30,08,33,22.10
2008,06,30,08,34,22.00
2008,06,30,08,35,22.00
2008,06,30,08,36,21.90
2008,06,30,08,37,21.90
2008,06,30,08,38,21.80
2008,06,30,08,39,21.80
2008,06,30,08,40,21.80
2008,06,30,08,41,21.80
2008,06,30,08,42,21.70
2008,06,30,08,43,21.80
2008,06,30,08,44,21.80
2008,06,30,08,45,21.80
2008,06,30,08,46,21.80
2008,06,30,08,47,21.80
2008,06,30,08,48,21.80
2008,06,30,08,49,21.80
2008,06,30,08,50,21.70
2008,06,30,08,51,21.60
2008,06,30,08,52,21.60
2008,06,30,08,53,21.60
2008,06,30,08,54,21.60
2008,06,30,08,55,21.60
2008,06,30,08,56,21.60
2008,06,30,08,57,21.60
2008,06,30,08,58,21.70
2008,06,30,08,59,21.70
2008,06,30,09,00,21.80
2008,06,30,09,01,21.80
2008,06,30,09,02,21.90
2008,06,30,09,03,21.90
2008,06,30,09,04,22.00
2008,06,30,09,05,22.00
2008,06,30,09,06,22.00
2008,06,30,09,07,22.00
2008,06,30,09,08,21.90
2008,06,30,09,09,21.90
2008,06,30,09,10,21.80
2008,06,30,09,11,21.90
2008,06,30,09,12,21.90
2008,06,30,09,13,21.90
2008,06,30,09,14,22.00
2008,06,30,09,15,22.10
2008,06,30,09,16,22.20
2008,06,30,09,17,22.20
2008,06,30,09,18,22.10
2008,06,30,09,19,22.00
2008,06,30,09,20,21.90
2008,06,30,09,21,21.90
2008,06,30,09,22,21.80
2008,06,30,09,23,21.80
2008,06,30,09,24,21.70
2008,06,30,09,25,21.70
2008,06,30,09,26,21.60
2008,06,30,09,27,21.50
2008,06,30,09,28,21.40
2008,06,30,09,29,21.40
2008,06,30,09,30,21.30
2008,06,30,09,31,21.30
2008,06,30,09,32,21.40
2008,06,30,09,33,21.40
2008,06,30,09,34,21.40
2008,06,30,09,35,21.40
2008,06,30,09,36,21.40
2008,06,30,09,37,21.50
2008,06,30,09,38,21.50
2008,06,30,09,39,21.60
2008,06,30,09,40,21.70
2008,06,30,09,41,21.70
2008,06,30,09,42,21.70
2008,06,30,09,43,21.70
2008,06,30,09,44,21.70
2008,06,30,09,45,21.70
2008,06,30,09,46,21.70
2008,06,30,09,47,21.80
2008,06,30,09,48,21.80
2008,06,30,09,49,21.80
2008,06,30,09,50,21.70
2008,06,30,09,51,21.60
2008,06,30,09,52,21.60
2008,06,30,09,53,21.60
2008,06,30,09,54,21.60
2008,06,30,09,55,21.70
2008,06,30,09,56,21.80
2008,06,30,09,57,21.80
2008,06,30,09,58,21.80
2008,06,30,09,59,21.90
2008,06,30,10,00,22.00
2008,06,30,10,01,22.10
2008,06,30,10,02,22.20
2008,06,30,10,03,22.20
2008,06,30,10,04,22.30
2008,06,30,10,05,22.30
2008,06,30,10,06,22.30
2008,06,30,10,07,22.30
2008,06,30,10,08,22.20
2008,06,30,10,09,22.10
2008,06,30,10,10,22.10
2008,06,30,10,11,22.10
2008,06,30,10,12,22.20
2008,06,30,10,13,22.20
2008,06,30,10,14,22.20
2008,06,30,10,15,22.20
2008,06,30,10,16,22.30
2008,06,30,10,17,22.30
2008,06,30,10,18,22.30
2008,06,30,10,19,22.30
2008,06,30,10,20,22.30
2008,06,30,10,21,22.30
2008,06,30,10,22,22.30
2008,06,30,10,23,22.30
2008,06,30,10,24,22.30
2008,06,30,10,25,22.30
2008,06,30,10,26,22.30
2008,06,30,10,27,22.20
2008,06,30,10,28,22.10
2008,06,30,10,29,22.00
2008,06,30,10,30,21.90
2008,06,30,10,31,21.80
2008,06,30,10,32,21.80
2008,06,30,10,33,21.80
2008,06,30,10,34,21.80
2008,06,30,10,35,21.80
2008,06,30,10,36,21.80
2008,06,30,10,37,21.80
2008,06,30,10,38,21.80
2008,06,30,10,39,21.70
2008,06,30,10,40,21.60
2008,06,30,10,41,21.60
2008,06,30,10,42,21.60
2008,06,30,10,43,21.60
2008,06,30,10,44,21.60
2008,06,30,10,45,21.60
2008,06,30,10,46,21.70
2008,06,30,10,47,21.70
2008,06,30,10,48,21.80
2008,06,30,10,49,21.80
2008,06,30,10,50,21.80
2008,06,30,10,51,21.90
2008,06,30,10,52,21.90
2008,06,30,10,53,21.90
2008,06,30,10,54,22.00
2008,06,30,10,55,22.00
2008,06,30,10,56,22.00
2008,06,30,10,57,22.00
2008,06,30,10,58,22.00
2008,06,30,10,59,22.10
2008,06,30,11,00,22.10
2008,06,30,11,01,22.30
2008,06,30,11,02,22.40
2008,06,30,11,03,22.40
2008,06,30,11,04,22.50
2008,06,30,11,05,22.50
2008,06,30,11,06,22.60
2008,06,30,11,07,22.60
2008,06,30,11,08,22.60
2008,06,30,11,09,22.60
2008,06,30,11,10,22.60
2008,06,30,11,11,22.60
2008,06,30,11,12,22.50
2008,06,30,11,13,22.50
2008,06,30,11,14,22.40
2008,06,30,11,15,22.30
2008,06,30,11,16,22.10
2008,06,30,11,17,22.00
2008,06,30,11,18,22.00
2008,06,30,11,19,21.90
2008,06,30,11,20,21.90
2008,06,30,11,21,21.90
2008,06,30,11,22,21.90
2008,06,30,11,23,21.90
2008,06,30,11,24,21.90
2008,06,30,11,25,22.00
2008,06,30,11,26,22.10
2008,06,30,11,27,22.20
2008,06,30,11,28,22.30
2008,06,30,11,29,22.30
2008,06,30,11,30,22.40
2008,06,30,11,31,22.50
2008,06,30,11,32,22.60
2008,06,30,11,33,22.50
2008,06,30,11,34,22.40
2008,06,30,11,35,22.40
2008,06,30,11,36,22.30
2008,06,30,11,37,22.30
2008,06,30,11,38,22.30
2008,06,30,11,39,22.30
2008,06,30,11,40,22.40
2008,06,30,11,41,22.40
2008,06,30,11,42,22.40
2008,06,30,11,43,22.40
2008,06,30,11,44,22.30
2008,06,30,11,45,22.20
2008,06,30,11,46,22.10
2008,06,30,11,47,22.00
2008,06,30,11,48,21.90
2008,06,30,11,49,21.90
2008,06,30,11,50,21.90
2008,06,30,11,51,21.90
2008,06,30,11,52,21.90
2008,06,30,11,53,21.90
2008,06,30,11,54,21.90
2008,06,30,11,55,21.90
2008,06,30,11,56,22.00
2008,06,30,11,57,22.00
2008,06,30,11,58,22.20
2008,06,30,11,59,22.30
2008,06,30,12,00,22.30
2008,06,30,12,01,22.40
2008,06,30,12,02,22.50
2008,06,30,12,03,22.50
2008,06,30,12,04,22.60
2008,06,30,12,05,22.60
2008,06,30,12,06,22.60
2008,06,30,12,07,22.50
2008,06,30,12,08,22.50
2008,06,30,12,09,22.40
2008,06,30,12,10,22.40
2008,06,30,12,11,22.40
2008,06,30,12,12,22.30
2008,06,30,12,13,22.30
2008,06,30,12,14,22.30
2008,06,30,12,15,22.30
2008,06,30,12,16,22.20
2008,06,30,12,17,22.10
2008,06,30,12,18,22.00
2008,06,30,12,19,21.90
2008,06,30,12,20,21.80
2008,06,30,12,21,21.80
2008,06,30,12,22,21.80
2008,06,30,12,23,21.80
2008,06,30,12,24,21.80
2008,06,30,12,25,21.90
2008,06,30,12,26,22.00
2008,06,30,12,27,22.10
2008,06,30,12,28,22.20
2008,06,30,12,29,22.30
2008,06,30,12,30,22.40
2008,06,30,12,31,22.40
2008,06,30,12,32,22.40
2008,06,30,12,33,22.40
2008,06,30,12,34,22.40
2008,06,30,12,35,22.40
2008,06,30,12,36,22.40
2008,06,30,12,37,22.30
2008,06,30,12,38,22.30
2008,06,30,12,39,22.40
2008,06,30,12,40,22.40
2008,06,30,12,41,22.40
2008,06,30,12,42,22.40
2008,06,30,12,43,22.50
2008,06,30,12,44,22.60
2008,06,30,12,45,22.70
2008,06,30,12,46,22.80
2008,06,30,12,47,22.90
2008,06,30,12,48,22.90
2008,06,30,12,49,22.90
2008,06,30,12,50,23.00
2008,06,30,12,51,23.10
2008,06,30,12,52,23.20
2008,06,30,12,53,23.20
2008,06,30,12,54,23.30
2008,06,30,12,55,23.30
2008,06,30,12,56,23.40
2008,06,30,12,57,23.40
2008,06,30,12,58,23.40
2008,06,30,12,59,23.40
2008,06,30,13,00,23.30
2008,06,30,13,01,23.30
2008,06,30,13,02,23.30
2008,06,30,13,03,23.30
2008,06,30,13,04,23.30
2008,06,30,13,05,23.40
2008,06,30,13,06,23.40
2008,06,30,13,07,23.50
2008,06,30,13,08,23.60
2008,06,30,13,09,23.60
2008,06,30,13,10,23.60
2008,06,30,13,11,23.60
2008,06,30,13,12,23.50
2008,06,30,13,13,23.50
2008,06,30,13,14,23.50
2008,06,30,13,15,23.50
2008,06,30,13,16,23.50
2008,06,30,13,17,23.50
2008,06,30,13,18,23.60
2008,06,30,13,19,23.60
2008,06,30,13,20,23.60
2008,06,30,13,21,23.70
2008,06,30,13,22,23.70
2008,06,30,13,23,23.90
2008,06,30,13,24,24.10
2008,06,30,13,25,24.30
2008,06,30,13,26,24.40
2008,06,30,13,27,24.50
2008,06,30,13,28,24.40
2008,06,30,13,29,24.40
2008,06,30,13,30,24.30
2008,06,30,13,31,24.20
2008,06,30,13,32,24.20
2008,06,30,13,33,24.20
2008,06,30,13,34,24.20
2008,06,30,13,35,24.20
2008,06,30,13,36,24.30
2008,06,30,13,37,24.30
2008,06,30,13,38,24.30
2008,06,30,13,39,24.30
2008,06,30,13,40,24.20
2008,06,30,13,41,24.20
2008,06,30,13,42,24.10
2008,06,30,13,43,24.00
2008,06,30,13,44,24.00
2008,06,30,13,45,23.90
2008,06,30,13,46,23.80
2008,06,30,13,47,23.80
2008,06,30,13,48,23.90
2008,06,30,13,49,24.00
2008,06,30,13,50,24.10
2008,06,30,13,51,24.10
2008,06,30,13,52,24.10
2008,06,30,13,53,24.10
2008,06,30,13,54,24.10
2008,06,30,13,55,24.00
2008,06,30,13,56,24.00
2008,06,30,13,57,23.90
2008,06,30,13,58,24.00
2008,06,30,13,59,24.10
2008,06,30,14,00,24.00
2008,06,30,14,01,23.90
2008,06,30,14,02,23.90
2008,06,30,14,03,24.00
2008,06,30,14,04,24.00
2008,06,30,14,05,24.10
2008,06,30,14,06,24.10
2008,06,30,14,07,24.10
2008,06,30,14,08,24.10
2008,06,30,14,09,24.20
2008,06,30,14,10,24.20
2008,06,30,14,11,24.20
2008,06,30,14,12,24.10
2008,06,30,14,13,24.10
2008,06,30,14,14,24.20
2008,06,30,14,15,24.10
2008,06,30,14,16,24.00
2008,06,30,14,17,24.00
2008,06,30,14,18,23.90
2008,06,30,14,19,23.80
2008,06,30,14,20,23.80
2008,06,30,14,21,23.70
2008,06,30,14,22,23.60
2008,06,30,14,23,23.50
2008,06,30,14,24,23.40
2008,06,30,14,25,23.30
2008,06,30,14,26,23.30
2008,06,30,14,27,23.30
2008,06,30,14,28,23.40
2008,06,30,14,29,23.50
2008,06,30,14,30,23.60
2008,06,30,14,31,23.80
2008,06,30,14,32,24.00
2008,06,30,14,33,24.20
2008,06,30,14,34,24.40
2008,06,30,14,35,24.60
2008,06,30,14,36,24.70
2008,06,30,14,37,24.80
2008,06,30,14,38,24.90
2008,06,30,14,39,25.00
2008,06,30,14,40,25.20
2008,06,30,14,41,25.30
2008,06,30,14,42,25.30
2008,06,30,14,43,25.30
2008,06,30,14,44,25.30
2008,06,30,14,45,25.30
2008,06,30,14,46,25.30
2008,06,30,14,47,25.40
2008,06,30,14,48,25.50
2008,06,30,14,49,25.60
2008,06,30,14,50,25.70
2008,06,30,14,51,25.80
2008,06,30,14,52,25.80
2008,06,30,14,53,25.80
2008,06,30,14,54,25.70
2008,06,30,14,55,25.60
2008,06,30,14,56,25.60
2008,06,30,14,57,25.60
2008,06,30,14,58,25.60
2008,06,30,14,59,25.70
2008,06,30,15,00,25.70
2008,06,30,15,01,25.70
2008,06,30,15,02,25.70
2008,06,30,15,03,25.60
2008,06,30,15,04,25.50
2008,06,30,15,05,25.50
2008,06,30,15,06,25.50
2008,06,30,15,07,25.50
2008,06,30,15,08,25.50
2008,06,30,15,09,25.50
2008,06,30,15,10,25.50
2008,06,30,15,11,25.50
2008,06,30,15,12,25.50
2008,06,30,15,13,25.60
2008,06,30,15,14,25.60
2008,06,30,15,15,25.50
2008,06,30,15,16,25.50
2008,06,30,15,17,25.50
2008,06,30,15,18,25.60
2008,06,30,15,19,25.70
2008,06,30,15,20,25.90
2008,06,30,15,21,25.90
2008,06,30,15,22,26.00
2008,06,30,15,23,26.10
2008,06,30,15,24,26.00
2008,06,30,15,25,26.00
2008,06,30,15,26,26.00
2008,06,30,15,27,26.00
2008,06,30,15,28,26.10
2008,06,30,15,29,26.20
2008,06,30,15,30,26.30
2008,06,30,15,31,26.30
2008,06,30,15,32,26.40
2008,06,30,15,33,26.40
2008,06,30,15,34,26.30
2008,06,30,15,35,26.20
2008,06,30,15,36,26.00
2008,06,30,15,37,26.00
2008,06,30,15,38,25.90
2008,06,30,15,39,25.90
2008,06,30,15,40,25.90
2008,06,30,15,41,25.90
2008,06,30,15,42,25.90
2008,06,30,15,43,25.90
2008,06,30,15,44,26.00
2008,06,30,15,45,26.00
2008,06,30,15,46,25.90
2008,06,30,15,47,25.90
2008,06,30,15,48,26.00
2008,06,30,15,49,26.00
2008,06,30,15,50,26.10
2008,06,30,15,51,26.20
2008,06,30,15,52,26.30
2008,06,30,15,53,26.40
2008,06,30,15,54,26.50
2008,06,30,15,55,26.60
2008,06,30,15,56,26.70
2008,06,30,15,57,26.80
2008,06,30,15,58,27.00
2008,06,30,15,59,27.10
2008,06,30,16,00,27.20
2008,06,30,16,01,27.20
2008,06,30,16,02,27.20
2008,06,30,16,03,27.30
2008,06,30,16,04,27.30
2008,06,30,16,05,27.30
2008,06,30,16,06,27.40
2008,06,30,16,07,27.40
2008,06,30,16,08,27.50
2008,06,30,16,09,27.50
2008,06,30,16,10,27.60
2008,06,30,16,11,27.60
2008,06,30,16,12,27.60
2008,06,30,16,13,27.50
2008,06,30,16,14,27.50
2008,06,30,16,15,27.50
2008,06,30,16,16,27.60
2008,06,30,16,17,27.60
2008,06,30,16,18,27.60
2008,06,30,16,19,27.60
2008,06,30,16,20,27.50
2008,06,30,16,21,27.50
2008,06,30,16,22,27.40
2008,06,30,16,23,27.40
2008,06,30,16,24,27.30
2008,06,30,16,25,27.20
2008,06,30,16,26,27.10
2008,06,30,16,27,27.00
2008,06,30,16,28,26.90
2008,06,30,16,29,26.80
2008,06,30,16,30,26.70
2008,06,30,16,31,26.70
2008,06,30,16,32,26.70
2008,06,30,16,33,26.70
2008,06,30,16,34,26.70
2008,06,30,16,35,26.70
2008,06,30,16,36,26.80
2008,06,30,16,37,26.80
2008,06,30,16,38,26.90
2008,06,30,16,39,27.00
2008,06,30,16,40,27.10
2008,06,30,16,41,27.10
2008,06,30,16,42,27.20
2008,06,30,16,43,27.30
2008,06,30,16,44,27.40
2008,06,30,16,45,27.30
2008,06,30,16,46,27.20
2008,06,30,16,47,27.10
2008,06,30,16,48,27.00
2008,06,30,16,49,27.00
2008,06,30,16,50,27.00
2008,06,30,16,51,27.00
2008,06,30,16,52,26.90
2008,06,30,16,53,26.90
2008,06,30,16,54,26.80
2008,06,30,16,55,26.80
2008,06,30,16,56,26.80
2008,06,30,16,57,26.80
2008,06,30,16,58,26.70
2008,06,30,16,59,26.70
2008,06,30,17,00,26.70
2008,06,30,17,01,26.60
2008,06,30,17,02,26.50
2008,06,30,17,03,26.40
2008,06,30,17,04,26.40
2008,06,30,17,05,26.50
2008,06,30,17,06,26.50
2008,06,30,17,07,26.50
2008,06,30,17,08,26.50
2008,06,30,17,09,26.50
2008,06,30,17,10,26.50
2008,06,30,17,11,26.60
2008,06,30,17,12,26.50
2008,06,30,17,13,26.50
2008,06,30,17,14,26.40
2008,06,30,17,15,26.40
2008,06,30,17,16,26.40
2008,06,30,17,17,26.40
2008,06,30,17,18,26.40
2008,06,30,17,19,26.40